Location: Recife
(8.0585°S, 34.8848°W)
Time: 11:48:43
(UTC-03:00)

Injun/Solrad 3 - Pass Details

Date: 18 April 2026
Orbit: 868 x 988 km, 66.8° (Epoch: 12 May)

Event Time Altitude Azimuth Distance (km) Brightness Sun altitude
Rises 06:46:20 0° 5° (N) 3,678 11.3 19.6°
Reaches altitude 10° 06:49:21 10° 17° (NNE) 2,732 10.9 20.3°
Maximum altitude 06:54:32 26° 72° (ENE) 1,821 12.6 21.6°
Drops below altitude 10° 06:59:40 10° 126° (SE) 2,712 11.0 22.8°
Sets 07:02:37 0° 138° (SE) 3,646 11.3 23.5°
